Terminal Aerodrome Forecast
Issued by NWS Quad Cities IA IL

Home | Current Version | Previous Version | Text Only | Print | Product List | Glossary On
Versions: 1 2 3 4 5 6 7 8 9 10 11 12 13 14 15 16 17 18 19 20 21 22 23 24 25
000
FTUS43 KDVN 211550 AAB
TAFMLI
TAF AMD
KMLI 211550Z 2116/2212 11005KT 6SM BR OVC009
     FM211700 11004KT 1SM BR OVC004
     FM212100 12006KT 1/2SM -DZ FG OVC004 PROB30 2208/2212 1SM SHRA
      BR OVC002=

USA.gov is the U.S. government's official web portal to all federal, state and local government web resources and services.